Tracking 27126 objects as of 30-Mar-2023
HD Live streaming from Space Station
objects crossing your sky now

STARLINK-4721

Track STARLINK-4721 now!
10-day predictions
STARLINK-4721 is classified as:


NORAD ID: 53796
Int'l Code: 2022-111Z
Perigee: 545.9 km
Apogee: 547.8 km
Inclination: 53.2 °
Period: 95.4 minutes
Semi major axis: 6917 km
RCS: Unknown
Launch date: September 11, 2022
Source: United States (US)
Launch site: AIR FORCE EASTERN TEST RANGE (AFETR)
Your satellite tracking list
Your tracking list is empty




NASA's NSSDC Master Catalog

Two Line Element Set (TLE):
1 53796U 22111Z   23089.24130122  .00014658  00000-0  93688-3 0  9995
2 53796  53.2189  41.6581 0001332  93.3824 266.7321 15.08849410 30890
Source of the keplerian elements: AFSPC